Wetbulb
59.48 59.08 59.36 59.26 59.37 59.09 57.96 57.17 56.32 56.52 57.30 58.10 58.01 57.95 57.83 57.72 57.83 57.80 57.80 58.16 57.85 57.65 57.46 58.22 57.62 56.92 50.90 43.94 42.54 53.22 59.52 59.62 57.20 55.31 51.64 49.33 46.82 46.37 42.41 41.74 42.09 39.92 40.88 42.19 42.67 42.85 43.13
59.20 59.11 58.99 58.86 59.17 59.08 58.98 57.28 56.54 56.66 57.29 57.69 57.91 57.80 57.70 57.68 57.64 57.56 57.52 57.59 58.30 57.52 58.04 58.32 57.50 56.08 47.08 37.89 49.68 54.83 57.22 55.77 55.67 52.15 50.41 49.49 47.78 47.65 42.41 40.56 40.81 40.76 41.15 41.13 42.18 42.29 42.76
58.88 58.67 58.83 58.39 58.51 58.84 58.69 58.45 56.47 56.50 56.94 57.32 57.57 57.43 57.37 57.36 57.26 57.13 57.24 57.37 58.27 57.51 57.45 57.71 56.57 51.32 44.54 42.58 50.40 54.85 55.54 54.72 54.89 51.36 49.21 50.28 50.20 45.62 43.00 40.40 41.97 40.87 38.91 40.69 40.41 41.50 42.18
58.74 58.54 58.22 58.24 58.08 58.27 58.42 58.14 56.51 56.33 56.65 56.95 57.08 56.99 56.93 57.01 57.16 57.39 57.39 57.04 58.23 57.65 57.22 57.91 55.67 49.68 43.94 52.47 51.13 52.01 54.26 53.12 53.72 53.65 50.86 52.21 50.83 44.68 42.43 42.19 39.55 38.45 38.22 36.48 40.15 40.95 42.50
58.36 58.33 57.72 57.21 57.71 57.89 58.11 57.51 56.80 56.38 56.42 56.66 56.64 56.44 56.43 56.56 57.02 57.13 56.74 57.39 57.19 57.83 58.63 57.72 48.88 47.16 43.37 54.46 47.68 49.90 52.38 50.01 49.75 50.69 51.50 51.03 46.67 41.02 41.08 36.92 34.54 34.74 32.28 34.68 37.59 39.92 40.67
57.90 57.89 57.49 57.30 56.82 57.41 57.84 57.55 56.34 56.49 56.13 56.28 56.22 55.91 55.74 56.14 56.44 56.38 55.18 55.47 58.16 54.05 52.17 51.96 48.74 43.18 47.18 44.61 47.67 48.87 50.53 49.98 48.39 48.96 47.96 43.96 39.68 36.62 34.64 34.50 30.56 31.93 31.65 32.98 34.56 37.96 38.48
57.50 57.13 57.25 56.71 57.31 56.89 57.21 57.21 56.64 56.34 56.15 55.88 55.50 55.17 55.86 56.16 56.40 55.76 48.55 46.15 42.20 41.93 43.00 41.54 42.88 43.51 45.78 47.60 49.82 47.75 49.81 48.85 47.15 44.48 37.41 38.32 34.15 30.12 32.10 33.03 33.49 33.66 33.36 33.14 35.42 37.58 36.36
56.78 57.02 56.74 57.02 57.03 57.00 56.74 56.56 56.80 56.31 55.62 55.26 55.01 55.62 56.01 56.34 55.75 53.97 46.09 41.99 41.82 44.05 36.75 42.61 43.25 44.17 46.18 47.45 44.80 47.82 50.14 43.80 42.59 36.63 37.89 36.14 32.08 34.75 35.88 35.17 34.15 33.83 32.54 32.03 34.87 36.78 36.01
56.51 56.45 56.68 56.96 56.77 56.70 56.73 56.67 56.15 56.46 55.84 55.21 54.51 55.27 55.84 55.48 53.62 47.53 43.60 43.13 46.66 45.34 35.67 40.04 42.70 43.22 43.84 47.61 44.36 45.36 45.67 42.74 38.98 35.61 35.10 33.06 34.19 36.70 35.20 33.44 33.73 31.38 30.82 31.00 32.46 33.91 33.24
56.09 56.23 56.84 56.76 56.32 56.28 56.34 56.47 56.15 55.65 55.15 55.31 55.02 54.56 55.02 53.42 46.94 43.71 41.83 45.70 46.05 44.68 29.10 32.76 39.35 42.05 44.26 47.25 41.89 47.44 45.67 42.79 38.12 34.35 34.48 33.42 36.10 35.16 34.01 32.66 32.35 31.18 34.17 33.58 32.41 31.06 29.66
55.30 55.98 56.43 56.65 55.98 55.81 55.97 56.23 56.32 55.55 54.73 54.28 55.00 53.86 53.90 50.40 41.99 41.03 43.55 45.65 45.15 40.07 16.99 35.43 37.85 45.70 43.26 40.27 39.95 41.14 45.49 41.50 35.44 34.23 35.71 32.42 33.56 32.85 32.73 32.99 33.82 32.33 34.93 32.98 31.99 29.53 28.32
54.58 55.18 56.35 57.09 56.72 56.17 56.07 56.19 56.46 55.74 54.76 54.74 54.55 53.53 51.90 45.67 44.06 43.44 45.45 43.75 40.31 27.81 16.59 28.86 36.49 36.07 36.71 38.04 38.78 40.77 40.23 41.77 40.06 34.95 34.35 32.86 36.48 35.54 35.12 35.87 35.00 35.55 33.07 31.44 29.81 28.25 23.15
54.09 54.46 56.11 56.82 56.82 56.18 55.81 56.05 56.32 55.73 54.72 54.93 52.99 52.85 48.45 46.31 39.66 45.19 42.90 39.42 28.23 20.41 31.34 30.55 31.42 34.61 33.21 33.54 35.78 35.85 34.36 32.84 31.16 28.48 27.66 30.84 31.61 35.39 37.43 33.54 35.12 33.20 29.22 22.87 23.20 21.15 24.30
55.39 55.53 55.99 56.65 56.79 56.17 55.74 55.71 56.06 55.93 54.56 54.60 52.11 50.71 48.40 46.61 45.34 43.70 40.04 33.58 21.44 27.50 28.68 33.64 32.83 32.60 30.89 33.07 33.00 33.30 31.92 29.69 33.87 30.44 26.09 24.09 22.98 32.15 36.57 34.27 31.52 31.54 29.12 23.07 20.34 20.29 22.71
55.72 55.91 56.03 56.35 56.72 55.92 55.73 55.54 55.71 55.69 54.73 54.15 50.54 44.63 42.96 44.39 46.23 40.75 36.64 24.85 25.59 28.89 31.79 31.69 31.40 28.74 28.85 31.52 31.03 30.49 29.18 29.04 31.43 32.27 27.34 25.81 26.47 34.01 36.15 36.52 33.65 31.57 27.70 30.08 21.53 20.33 21.32
55.58 55.56 56.10 56.16 56.09 55.35 55.31 55.31 55.38 55.55 54.94 52.06 42.67 41.66 41.25 45.23 43.96 38.54 32.00 28.48 28.84 32.94 35.12 33.15 27.82 28.08 25.78 28.70 27.99 28.56 27.73 31.74 32.15 33.41 32.53 29.44 24.93 31.58 34.90 35.54 35.00 31.70 32.46 26.26 25.42 20.17 19.65
55.31 55.55 55.94 55.89 55.98 55.31 54.88 54.89 55.15 55.53 54.63 50.54 40.33 38.85 42.48 45.16 41.38 36.31 26.61 26.75 30.75 35.17 36.36 32.03 28.54 27.84 27.19 27.07 27.96 26.97 28.33 31.40 34.07 33.62 33.39 30.70 27.98 28.03 31.47 29.45 29.02 31.18 29.27 28.25 26.93 24.86 21.81
55.28 55.52 55.53 55.56 55.39 55.05 54.56 54.39 54.80 55.42 53.45 44.89 38.37 35.88 44.22 40.96 34.75 30.57 29.31 31.38 37.98 34.34 36.41 34.91 33.44 31.69 28.61 29.59 28.65 28.25 28.39 31.54 35.79 34.99 30.78 32.18 27.59 22.64 26.29 31.68 32.96 30.59 29.23 28.91 25.06 22.66 23.08
55.12 54.72 55.09 55.13 54.85 54.76 54.19 53.98 54.34 55.13 52.40 40.40 37.34 36.74 42.78 40.16 30.23 28.66 31.72 33.41 34.94 34.25 34.93 34.52 32.83 34.20 33.32 30.06 27.55 29.77 31.07 36.80 37.58 35.92 31.38 32.18 26.55 20.04 24.30 27.56 31.07 30.63 30.85 28.78 26.72 26.89 23.42
54.87 54.86 54.89 54.73 54.63 54.66 53.92 53.56 53.92 54.68 53.40 40.65 36.41 33.64 37.34 36.44 33.39 30.92 30.22 31.25 30.49 36.04 35.97 36.17 34.86 35.08 32.54 30.26 32.15 29.87 31.27 36.02 37.38 36.98 41.37 36.18 27.72 25.33 22.71 25.44 29.46 28.66 29.64 28.96 28.84 23.70 23.10
54.78 54.78 54.71 54.57 54.63 54.84 53.82 53.21 53.73 54.17 52.24 41.37 35.51 32.65 32.79 29.79 33.15 31.46 32.56 33.22 31.77 31.44 35.38 35.67 32.81 33.96 32.41 28.42 29.09 28.83 32.05 33.30 35.84 39.13 34.74 32.18 26.72 23.40 25.94 27.85 29.78 29.79 29.82 28.60 26.09 27.32 26.35
55.03 54.94 54.70 54.44 54.40 54.67 53.64 52.90 53.51 53.74 50.48 38.89 35.35 34.17 33.73 32.10 32.56 30.96 32.71 31.11 32.13 33.35 34.07 32.14 31.45 33.65 32.70 29.88 30.81 28.66 31.50 31.24 31.18 32.49 32.39 32.26 26.96 27.20 25.22 27.59 27.20 26.55 28.19 28.67 29.83 30.12 27.98
55.34 55.09 54.89 54.54 54.20 54.27 53.37 52.52 53.27 53.47 48.49 39.17 36.98 37.18 35.51 33.45 31.46 29.95 30.25 30.84 32.33 33.97 34.45 35.76 35.02 33.02 31.69 33.37 34.44 34.25 34.32 33.98 32.92 32.65 31.57 30.25 27.45 24.97 21.62 26.56 26.94 24.02 27.00 28.40 28.54 29.32 30.70
55.44 55.23 55.14 54.75 54.10 53.68 53.27 52.40 53.10 53.38 48.05 41.51 38.90 38.13 33.75 30.32 31.41 32.25 32.56 32.39 32.61 32.71 32.12 34.77 34.43 32.47 34.52 37.23 35.70 33.65 32.03 32.67 32.33 32.46 33.49 29.01 27.19 26.91 22.56 24.39 16.37 29.10 31.10 31.35 30.04 30.52 31.37
55.90 55.89 55.70 55.05 54.34 53.74 53.52 52.31 52.89 53.12 50.96 43.35 40.41 39.48 35.34 30.35 31.84 32.31 33.00 33.16 32.36 32.99 32.14 33.24 34.73 35.80 37.06 34.20 30.37 28.61 27.09 27.60 27.60 28.80 29.42 31.55 28.95 26.52 22.72 20.47 25.03 30.57 28.46 28.40 28.28 29.03 31.40
54.60 55.81 55.79 55.31 54.43 53.51 53.37 52.34 52.71 52.21 51.62 44.50 41.50 40.79 38.97 34.00 31.86 34.40 32.71 31.63 31.38 28.91 30.77 32.72 35.51 36.89 35.57 32.15 29.68 25.60 24.35 25.29 24.47 23.89 29.37 30.81 29.63 27.66 24.02 19.25 19.46 27.07 28.98 30.91 29.97 24.86 30.48
51.39 52.19 53.37 55.31 54.85 53.90 53.32 52.48 52.20 51.96 51.55 45.96 43.38 42.15 40.43 34.73 35.40 34.50 33.65 33.61 33.43 30.45 30.87 30.83 31.48 31.83 33.13 29.76 28.26 26.31 25.28 26.65 24.29 22.84 24.07 25.68 28.54 27.46 26.67 23.18 25.42 31.28 32.34 31.96 24.08 27.28 30.96
50.61 51.08 51.74 52.87 54.55 54.28 53.56 52.83 52.11 51.94 51.55 46.96 43.42 43.88 42.13 36.65 37.15 38.42 38.40 35.00 33.97 33.03 31.35 32.82 32.45 31.56 29.87 28.56 27.92 26.67 24.58 26.24 24.00 23.69 24.34 24.87 24.53 26.29 28.51 26.33 20.94 32.41 30.75 29.20 31.94 31.59 33.51
50.14 50.60 51.35 52.15 52.57 53.75 53.59 53.12 52.35 52.25 51.63 49.14 42.40 44.86 44.68 40.25 38.78 41.11 41.30 40.90 39.71 38.83 35.91 33.92 32.46 31.25 32.82 28.55 27.43 27.13 27.16 24.46 24.06 22.96 24.18 23.57 28.01 25.60 27.82 27.96 32.64 31.89 31.35 34.04 33.45 33.88 34.43
MSLP
1021.73 1021.49 1021.09 1020.73 1020.38 1020.03 1019.63 1019.40 1019.20 1018.84 1018.50 1018.20 1017.80 1017.45 1017.06 1016.68 1016.29 1015.93 1015.53 1015.19 1014.92 1014.74 1014.47 1014.26 1014.13 1013.95 1013.88 1014.35 1014.75 1014.22 1014.02 1014.02 1014.86 1014.75 1014.80 1014.87 1015.30 1015.42 1015.94 1016.16 1015.97 1016.21 1016.57 1016.45 1016.57 1016.64 1016.72
1022.01 1021.65 1021.27 1020.91 1020.58 1020.15 1019.68 1019.30 1019.17 1018.83 1018.54 1018.22 1017.78 1017.40 1017.08 1016.62 1016.09 1015.81 1015.42 1015.07 1014.74 1014.40 1014.23 1014.07 1014.07 1014.06 1014.28 1014.91 1014.81 1014.69 1014.19 1014.23 1014.25 1014.71 1015.14 1014.99 1015.36 1015.34 1015.88 1016.32 1016.42 1016.34 1016.46 1016.69 1016.93 1016.99 1016.91
1022.23 1021.79 1021.43 1021.08 1020.74 1020.29 1019.79 1019.28 1019.02 1018.83 1018.53 1018.25 1017.84 1017.36 1017.07 1016.58 1015.84 1015.55 1015.34 1014.89 1014.39 1014.08 1013.98 1014.08 1014.11 1014.22 1014.60 1015.26 1014.84 1014.82 1014.43 1014.47 1014.85 1014.94 1015.12 1015.26 1015.38 1015.27 1016.05 1016.37 1016.60 1016.41 1016.81 1016.70 1017.42 1017.25 1017.14
1022.37 1022.02 1021.68 1021.29 1020.91 1020.42 1019.85 1019.36 1019.04 1018.86 1018.63 1018.31 1017.88 1017.46 1017.01 1016.48 1015.75 1015.29 1015.29 1014.82 1014.50 1014.34 1014.22 1014.23 1014.16 1014.24 1014.95 1015.01 1015.01 1014.91 1014.76 1014.89 1015.01 1015.26 1015.66 1015.43 1015.53 1015.63 1016.34 1016.78 1016.75 1016.78 1016.99 1017.33 1017.92 1017.41 1017.12
1022.52 1022.21 1021.89 1021.46 1021.05 1020.53 1019.94 1019.45 1019.11 1018.89 1018.65 1018.32 1017.82 1017.45 1017.05 1016.45 1015.78 1015.23 1015.30 1014.87 1014.69 1014.76 1014.58 1014.24 1014.22 1014.66 1014.94 1014.91 1015.16 1015.10 1014.96 1014.95 1015.55 1015.68 1015.66 1015.62 1015.60 1016.40 1017.08 1017.34 1017.65 1017.55 1017.80 1017.89 1018.15 1017.91 1017.56
1022.74 1022.39 1022.07 1021.70 1021.19 1020.64 1020.08 1019.58 1019.15 1018.91 1018.70 1018.34 1017.85 1017.46 1017.07 1016.47 1015.65 1015.24 1015.08 1015.04 1014.97 1015.09 1015.01 1014.66 1014.93 1015.27 1015.14 1015.63 1015.46 1015.23 1015.19 1015.04 1015.47 1015.88 1016.22 1016.05 1016.41 1017.16 1018.19 1018.33 1018.23 1018.11 1018.19 1018.37 1018.43 1018.66 1018.09
1023.00 1022.60 1022.23 1021.86 1021.33 1020.75 1020.26 1019.77 1019.33 1019.01 1018.80 1018.42 1017.96 1017.58 1017.17 1016.59 1016.03 1015.36 1015.17 1015.39 1016.23 1016.25 1016.22 1016.51 1016.38 1016.30 1016.09 1015.81 1015.51 1015.82 1015.53 1015.40 1015.77 1016.92 1016.77 1016.69 1017.58 1018.94 1019.66 1019.26 1018.17 1017.61 1017.89 1018.60 1019.16 1019.08 1018.85
1023.16 1022.87 1022.47 1021.96 1021.46 1020.94 1020.44 1020.02 1019.59 1019.19 1018.84 1018.53 1018.15 1017.68 1017.30 1016.81 1016.35 1015.84 1015.91 1017.36 1018.32 1018.61 1017.74 1016.89 1016.54 1016.57 1016.00 1015.82 1016.02 1016.06 1015.73 1016.05 1016.49 1016.93 1016.96 1017.40 1018.75 1019.79 1019.86 1019.33 1018.66 1018.19 1018.56 1019.41 1019.61 1019.43 1019.24
1023.39 1023.06 1022.66 1022.10 1021.56 1021.08 1020.62 1020.19 1019.70 1019.30 1018.89 1018.58 1018.29 1017.84 1017.24 1016.78 1016.47 1016.54 1017.52 1018.33 1018.42 1018.70 1018.40 1017.56 1017.02 1016.84 1017.04 1016.36 1016.75 1016.48 1016.29 1016.70 1017.23 1017.75 1017.90 1018.87 1020.01 1020.03 1020.21 1019.86 1019.25 1019.78 1019.57 1019.73 1019.85 1020.10 1020.37
1023.57 1023.23 1022.81 1022.32 1021.75 1021.29 1020.79 1020.30 1019.85 1019.34 1018.87 1018.41 1018.03 1017.77 1017.39 1016.70 1016.94 1017.54 1018.06 1018.41 1018.52 1018.71 1018.89 1018.97 1017.48 1017.07 1017.56 1017.21 1017.11 1016.70 1016.66 1017.11 1017.64 1018.50 1019.04 1019.91 1020.38 1020.46 1020.49 1020.47 1020.19 1020.33 1020.29 1020.12 1020.43 1020.81 1021.47
1023.77 1023.47 1023.00 1022.49 1021.99 1021.47 1020.98 1020.40 1019.87 1019.34 1018.84 1018.41 1018.02 1017.68 1017.34 1016.92 1017.48 1017.94 1018.60 1018.33 1018.39 1018.70 1019.96 1019.53 1018.21 1016.93 1017.41 1018.02 1017.70 1017.22 1017.05 1017.18 1018.22 1019.07 1019.11 1021.37 1021.33 1021.66 1021.05 1021.06 1020.57 1020.97 1020.75 1020.99 1021.35 1021.72 1022.31
1023.97 1023.63 1023.15 1022.64 1022.13 1021.61 1021.07 1020.48 1019.87 1019.33 1018.86 1018.36 1017.92 1017.65 1017.23 1017.51 1017.92 1018.55 1018.51 1018.35 1018.43 1019.42 1021.18 1020.30 1019.26 1018.58 1018.20 1018.41 1018.35 1017.88 1017.69 1017.62 1018.74 1019.34 1020.17 1021.58 1021.73 1021.95 1021.45 1021.32 1020.94 1021.21 1021.35 1021.78 1022.19 1022.72 1023.59
1024.12 1023.76 1023.25 1022.71 1022.21 1021.71 1021.18 1020.56 1019.86 1019.33 1018.87 1018.37 1017.91 1017.67 1017.45 1017.85 1018.41 1018.28 1018.37 1018.80 1019.70 1020.83 1022.22 1021.47 1020.28 1019.64 1019.52 1019.57 1019.34 1019.46 1019.74 1019.93 1020.42 1020.72 1021.91 1021.94 1022.23 1022.13 1021.99 1021.83 1021.51 1021.44 1021.91 1023.00 1023.78 1024.17 1024.70
1024.18 1023.78 1023.39 1022.91 1022.34 1021.80 1021.18 1020.52 1019.91 1019.29 1018.78 1018.34 1017.93 1017.70 1018.04 1018.11 1018.22 1018.26 1018.53 1019.15 1021.06 1022.33 1021.94 1021.33 1020.75 1020.17 1020.33 1020.29 1020.31 1020.48 1020.79 1021.48 1021.15 1021.25 1022.43 1022.79 1023.00 1022.85 1022.42 1022.37 1022.11 1022.36 1022.63 1023.49 1024.68 1025.55 1025.43
1024.26 1023.90 1023.50 1023.10 1022.56 1022.01 1021.36 1020.63 1019.92 1019.30 1018.53 1018.06 1017.84 1018.10 1018.37 1018.27 1018.17 1018.27 1018.91 1020.91 1022.11 1022.23 1021.80 1021.30 1020.86 1020.73 1020.83 1020.61 1020.56 1020.99 1021.76 1022.27 1022.26 1022.11 1022.42 1022.94 1023.22 1023.00 1022.92 1022.61 1022.59 1022.68 1023.18 1024.03 1025.11 1026.77 1026.00
1024.24 1023.93 1023.52 1023.13 1022.71 1022.20 1021.49 1020.75 1020.03 1019.24 1018.55 1018.00 1018.31 1018.45 1018.62 1018.26 1018.26 1018.66 1019.50 1022.18 1022.45 1022.01 1021.66 1021.34 1021.05 1020.98 1021.13 1021.04 1021.05 1021.26 1022.01 1022.33 1022.32 1022.18 1022.08 1022.80 1023.25 1023.55 1023.22 1022.89 1022.93 1022.92 1023.62 1024.30 1024.82 1025.80 1025.68
1024.14 1023.86 1023.49 1023.11 1022.72 1022.27 1021.61 1020.86 1020.07 1019.30 1018.55 1018.17 1018.58 1018.62 1018.35 1018.19 1018.24 1019.26 1021.81 1022.53 1022.15 1021.58 1021.32 1021.14 1021.13 1021.15 1021.10 1021.10 1021.30 1021.71 1022.19 1022.20 1022.05 1022.07 1021.96 1022.43 1022.97 1024.04 1023.71 1023.62 1023.60 1023.78 1024.01 1024.73 1025.16 1025.49 1025.45
1023.98 1023.72 1023.45 1023.14 1022.75 1022.24 1021.67 1020.93 1020.26 1019.46 1018.46 1018.27 1019.01 1019.21 1018.35 1018.19 1019.08 1021.41 1022.64 1022.30 1021.97 1021.91 1021.46 1021.21 1021.05 1021.03 1021.19 1021.29 1021.46 1021.51 1021.82 1021.95 1021.98 1021.95 1022.21 1022.53 1023.15 1023.94 1024.11 1024.03 1023.97 1024.02 1024.31 1024.67 1025.31 1025.99 1025.97
1023.76 1023.53 1023.29 1023.02 1022.76 1022.33 1021.76 1021.12 1020.40 1019.88 1019.40 1019.84 1020.29 1019.93 1018.35 1018.31 1020.44 1022.18 1022.24 1022.04 1021.78 1021.46 1021.43 1021.25 1021.32 1021.24 1021.12 1021.39 1021.72 1021.81 1021.93 1022.07 1022.22 1022.41 1022.44 1022.51 1023.13 1023.70 1023.97 1024.34 1024.16 1024.28 1024.54 1024.90 1025.35 1025.60 1025.39
1023.48 1023.31 1023.16 1022.83 1022.66 1022.28 1021.89 1021.38 1020.58 1019.86 1019.54 1019.92 1020.84 1021.14 1020.47 1020.77 1022.32 1022.11 1022.14 1021.95 1021.54 1021.25 1021.11 1021.14 1021.16 1021.31 1021.33 1021.23 1021.44 1021.89 1022.12 1022.30 1022.39 1022.53 1022.67 1023.01 1023.72 1023.81 1023.73 1023.30 1023.31 1023.95 1023.70 1023.86 1024.24 1025.12 1024.38
1023.03 1023.14 1022.98 1022.75 1022.50 1022.27 1021.86 1021.52 1020.81 1019.97 1019.50 1019.84 1021.90 1023.34 1023.25 1023.26 1023.03 1022.83 1022.50 1022.20 1021.81 1021.49 1021.36 1021.24 1021.28 1020.99 1021.33 1021.65 1021.69 1021.71 1021.94 1022.21 1022.52 1022.87 1023.10 1023.52 1024.31 1024.58 1024.41 1024.27 1024.17 1023.94 1023.86 1024.12 1023.95 1022.86 1022.58
1022.65 1022.78 1022.70 1022.57 1022.47 1022.21 1022.05 1021.71 1021.13 1020.18 1019.75 1021.04 1022.86 1023.59 1023.67 1023.45 1023.20 1022.73 1022.67 1022.45 1022.04 1021.73 1021.83 1021.72 1021.73 1021.67 1021.59 1021.79 1021.98 1022.17 1022.28 1022.48 1022.55 1023.10 1023.30 1023.85 1024.48 1024.85 1024.83 1024.39 1024.47 1024.10 1023.43 1023.62 1023.39 1022.94 1022.05
1022.27 1022.37 1022.48 1022.41 1022.39 1022.27 1022.13 1021.90 1021.52 1020.88 1020.18 1021.71 1023.23 1023.32 1023.41 1024.15 1023.79 1023.25 1022.90 1022.46 1022.15 1021.95 1021.72 1021.64 1021.80 1022.07 1022.11 1021.98 1021.92 1022.13 1022.33 1022.67 1022.96 1023.46 1024.17 1024.55 1024.61 1025.06 1024.52 1023.91 1023.60 1023.00 1021.44 1021.73 1021.63 1021.23 1020.96
1021.81 1021.93 1022.05 1022.24 1022.26 1022.29 1022.13 1022.17 1021.84 1021.48 1021.52 1022.31 1023.04 1023.28 1023.45 1023.83 1023.53 1023.17 1022.72 1022.32 1022.16 1022.44 1022.77 1022.53 1022.33 1022.20 1022.24 1022.05 1022.08 1022.22 1022.50 1022.76 1023.22 1023.66 1024.00 1024.86 1025.47 1025.59 1025.37 1024.54 1023.01 1019.33 1019.20 1019.36 1019.66 1019.22 1019.16
1021.37 1021.47 1021.59 1021.66 1022.02 1022.08 1022.17 1022.05 1022.19 1021.95 1021.86 1022.19 1023.02 1023.25 1023.53 1023.61 1023.47 1022.99 1022.77 1022.69 1022.63 1022.75 1022.57 1022.49 1022.73 1023.09 1023.07 1022.94 1022.83 1022.69 1022.74 1022.91 1023.53 1024.33 1024.62 1024.83 1025.16 1025.52 1025.45 1024.75 1022.20 1019.73 1019.48 1019.50 1019.66 1019.04 1018.32
1021.03 1021.07 1021.11 1021.19 1021.48 1021.62 1021.86 1021.96 1021.90 1022.06 1021.91 1022.39 1022.92 1023.05 1023.43 1023.60 1023.48 1023.08 1022.96 1022.87 1023.04 1023.12 1023.17 1023.04 1023.02 1022.85 1022.97 1023.58 1024.22 1024.17 1023.54 1023.28 1023.92 1024.53 1024.78 1025.03 1025.24 1025.46 1025.65 1024.86 1022.70 1020.26 1019.51 1019.30 1019.61 1019.17 1018.39
1021.04 1020.93 1020.87 1020.79 1020.81 1021.16 1021.30 1021.53 1021.73 1021.82 1021.86 1022.25 1022.90 1023.01 1023.31 1023.88 1023.26 1023.04 1023.04 1023.09 1023.13 1023.50 1023.71 1023.65 1023.64 1023.89 1023.75 1024.31 1024.85 1025.02 1024.70 1024.28 1024.12 1024.27 1024.78 1025.18 1025.37 1025.01 1024.81 1023.96 1021.83 1019.73 1019.32 1019.36 1019.80 1019.44 1018.66
1020.83 1020.67 1020.63 1020.51 1020.30 1020.50 1020.76 1021.06 1021.32 1021.43 1021.63 1021.99 1022.61 1022.66 1023.00 1023.57 1023.23 1022.96 1022.73 1022.95 1023.33 1023.53 1023.79 1023.95 1023.97 1024.21 1025.17 1024.90 1024.81 1024.61 1024.77 1024.38 1024.79 1024.51 1024.47 1024.37 1024.36 1024.20 1023.69 1023.06 1021.10 1019.34 1019.55 1019.73 1019.32 1018.94 1018.75
1020.57 1020.40 1020.13 1019.91 1019.80 1019.81 1020.11 1020.53 1020.90 1021.16 1021.27 1021.62 1022.55 1022.65 1022.77 1023.20 1023.09 1022.82 1022.62 1022.50 1022.78 1022.82 1023.26 1023.73 1024.19 1023.97 1023.69 1024.85 1025.13 1024.94 1024.74 1024.48 1024.28 1024.61 1024.19 1024.19 1023.04 1022.86 1022.50 1020.80 1019.49 1019.38 1019.28 1018.91 1019.07 1019.01 1018.81
Wind_Speed
18 18 18 18 17 16 16 14 13 12 12 11 11 12 14 15 15 14 14 12 12 9 9 7 9 6 4 5 2 4 7 8 7 2 2 6 4 3 4 2 2 5 4 5 5 6 3
19 18 18 18 18 17 16 15 13 13 12 12 12 13 14 16 15 14 13 11 10 7 7 6 7 4 4 6 3 4 4 4 5 4 3 4 3 2 4 2 1 4 6 6 7 3 4
17 19 19 19 20 19 17 16 14 13 12 12 13 14 15 16 17 16 13 7 5 6 4 4 4 4 8 2 2 6 2 3 3 3 3 1 2 4 3 4 2 5 8 5 8 5 3
17 18 20 20 20 20 19 17 15 13 13 12 13 14 15 17 18 18 15 3 4 7 4 7 3 2 5 2 5 3 2 3 4 2 1 3 2 5 4 1 5 4 5 6 4 6 2
18 18 19 20 20 21 20 18 16 13 12 13 12 12 14 16 18 18 13 5 3 4 10 11 7 4 5 5 2 1 1 3 4 2 3 2 2 4 4 4 4 7 5 5 3 4 2
17 18 19 20 21 20 21 20 18 15 13 12 12 12 12 14 19 17 8 4 8 6 4 3 1 6 7 4 3 3 3 2 4 4 2 4 5 5 4 3 6 6 8 4 5 4 4
17 18 19 20 20 21 21 20 19 16 14 12 12 13 12 13 15 16 7 4 7 8 9 5 1 4 4 7 2 6 2 2 3 3 1 3 10 5 5 4 3 7 7 7 1 3 1
17 18 19 20 20 20 20 21 20 18 15 14 13 13 13 13 10 12 5 8 3 2 4 4 4 2 3 1 6 6 1 4 4 3 4 8 7 3 6 4 3 8 9 4 1 4 2
17 18 19 20 20 20 19 19 19 18 17 16 15 14 15 11 4 6 5 4 2 3 4 5 5 5 6 7 3 5 5 3 4 6 7 7 4 4 2 5 6 5 6 4 3 2 4
16 19 19 20 20 20 19 19 19 18 16 15 15 15 13 14 5 1 3 1 1 3 7 11 9 6 6 3 5 2 3 1 6 5 3 8 6 6 3 5 3 5 3 3 5 4 2
15 17 20 20 20 20 20 20 19 19 17 14 12 12 10 10 2 3 0 2 3 2 8 14 9 5 4 5 2 4 3 6 5 3 3 1 5 4 7 3 2 4 2 4 3 5 4
15 17 19 19 20 20 20 21 21 21 19 15 8 9 6 4 3 1 4 1 3 10 2 9 6 7 5 6 6 6 6 8 4 6 10 3 1 2 2 2 3 6 4 7 4 3 4
14 16 18 19 20 20 20 20 21 22 20 15 7 6 4 1 0 2 2 2 8 9 3 7 4 6 2 7 7 9 7 9 4 6 6 5 4 5 3 2 2 4 5 4 5 5 5
10 12 15 18 19 20 21 21 21 21 21 15 7 4 4 2 2 1 3 7 11 5 4 3 2 2 5 6 6 8 4 6 6 7 5 4 6 6 7 3 2 4 3 6 5 2 4
12 13 14 16 17 20 21 22 22 21 21 13 4 2 2 4 3 1 6 9 6 5 1 3 0 5 5 4 2 5 5 2 3 5 4 4 3 4 3 3 2 1 4 4 9 1 2
10 12 13 15 17 19 20 22 23 24 23 9 2 2 2 5 2 5 8 4 0 2 2 1 3 2 3 6 4 4 3 2 2 2 2 2 4 2 4 2 5 3 5 4 3 2 3
9 10 12 14 15 16 18 21 22 23 24 5 4 4 2 2 3 7 6 0 2 2 1 2 2 3 2 2 3 2 1 1 1 2 3 2 4 3 1 3 1 3 2 5 3 3 4
8 10 11 12 13 15 17 19 22 23 23 7 2 4 1 1 7 3 3 1 1 3 2 1 2 2 3 4 4 2 2 2 1 1 3 1 5 2 1 1 1 1 2 3 5 3 2
8 9 9 10 11 13 16 18 20 21 15 2 3 3 2 3 5 3 1 2 1 2 2 2 2 2 1 2 3 2 1 3 5 4 1 3 1 3 5 3 1 2 3 4 4 3 5
7 8 9 9 10 11 14 17 19 19 15 5 3 4 6 7 2 5 3 1 2 1 3 1 2 0 0 2 2 1 1 1 3 3 6 4 2 3 7 5 4 4 7 7 7 4 6
7 7 8 8 9 11 13 16 18 19 13 5 5 1 3 3 5 4 5 3 1 1 1 1 1 3 3 1 1 2 2 0 2 4 3 4 1 2 4 4 3 4 5 7 9 5 8
9 8 8 8 8 9 11 14 17 20 8 7 4 2 2 2 1 2 3 3 2 2 2 3 2 1 1 1 1 3 1 3 3 1 3 0 3 3 4 3 4 7 10 9 13 8 14
9 9 9 8 8 8 9 11 14 19 9 4 1 1 4 4 4 2 1 1 1 0 1 1 1 2 3 3 3 3 3 1 2 4 4 2 4 3 6 2 3 7 9 11 6 7 9
9 9 8 8 7 7 6 8 10 12 8 3 2 3 4 2 2 2 1 2 2 1 4 3 1 3 1 2 1 1 1 2 4 3 3 5 3 0 4 3 2 7 5 5 11 7 15
9 10 9 7 7 6 4 3 6 8 8 4 1 3 3 1 1 2 2 2 2 3 2 2 0 2 4 5 3 4 3 1 2 4 2 1 4 1 2 3 8 8 0 4 5 7 5
3 6 9 9 8 7 6 3 1 4 6 4 2 2 3 4 3 0 1 1 2 2 3 2 1 1 4 3 2 3 5 3 3 1 5 4 4 3 2 2 6 5 2 2 2 6 2
5 6 7 9 9 10 9 7 4 2 4 4 1 2 4 1 3 3 3 3 4 2 1 3 2 2 3 2 2 4 5 2 4 5 6 4 3 8 7 6 8 10 5 1 1 5 2
7 8 9 10 11 11 11 11 9 9 6 4 2 3 4 2 4 3 2 4 1 1 3 2 3 1 3 2 4 4 4 4 3 1 5 7 7 6 6 5 10 4 3 6 4 2 2
10 13 13 13 13 12 13 13 13 11 10 6 2 1 2 3 4 3 4 3 5 6 5 1 2 3 5 3 1 1 3 2 4 4 2 4 7 5 9 8 2 1 3 5 3 3 4
Wind_Direction
25 23 19 17 16 13 11 7 1 354 355 352 350 342 338 341 340 338 332 327 325 339 354 22 24 20 45 50 21 291 109 89 129 89 82 103 86 109 130 250 54 94 145 71 90 104 52
19 16 16 16 12 13 4 5 358 348 348 346 338 337 335 336 335 333 332 332 318 299 301 340 46 97 74 54 314 105 111 78 62 76 53 76 151 118 83 17 297 142 103 105 62 46 37
16 16 14 14 9 7 4 356 357 349 346 344 336 334 338 334 331 336 346 340 277 246 256 48 74 102 69 317 113 146 180 98 64 36 69 246 342 79 119 101 226 156 87 75 29 350 62
19 13 13 11 7 3 3 359 356 353 347 342 339 338 340 336 329 334 357 352 227 254 333 21 79 102 76 27 123 125 89 65 17 4 256 277 239 91 68 319 30 79 53 90 349 359 345
20 14 11 11 9 6 6 3 358 355 349 342 336 343 340 334 328 334 6 98 182 283 330 347 41 31 71 120 62 300 208 105 157 69 307 267 69 96 40 92 41 13 115 96 92 36 300
17 13 10 9 10 10 7 7 4 359 350 345 338 341 342 334 332 343 30 122 97 75 343 316 89 49 3 330 324 360 23 134 97 83 17 35 56 81 34 52 178 156 112 70 117 337 22
16 13 8 7 7 9 11 10 9 3 355 349 347 341 337 337 339 349 41 50 18 355 35 10 175 107 338 317 358 19 352 69 70 102 10 15 72 70 297 281 292 119 99 106 66 350 59
16 13 8 3 5 8 10 11 11 8 359 353 349 340 338 333 341 0 47 74 120 243 11 16 307 336 315 311 67 14 101 70 31 40 325 23 62 22 286 308 72 65 104 68 70 17 99
13 11 8 2 3 5 6 6 8 6 357 350 343 339 334 333 314 42 73 117 143 124 99 358 321 51 13 27 57 341 39 62 73 57 45 95 329 21 191 19 64 34 98 140 127 82 69
10 7 3 3 2 1 359 360 1 0 356 346 341 341 343 326 49 173 62 20 116 167 72 331 348 26 76 205 349 289 28 162 47 110 75 75 327 15 69 71 11 70 329 92 95 84 164
7 359 0 0 0 359 355 352 354 357 355 344 334 334 344 29 142 60 56 303 143 68 56 311 315 316 17 164 335 9 333 42 76 26 78 345 28 345 52 329 331 143 69 79 87 87 80
4 358 353 355 356 356 352 347 347 354 355 349 337 329 347 29 53 33 331 254 56 45 356 335 326 352 28 18 3 316 26 43 147 66 45 83 57 34 12 360 57 150 80 47 53 66 41
2 358 347 351 354 355 352 349 348 352 353 349 347 345 45 87 181 330 58 42 43 85 292 313 322 1 27 3 9 24 29 25 36 77 14 21 3 328 19 61 42 72 61 15 11 12 214
348 344 345 347 352 351 350 349 348 352 351 346 346 70 13 69 320 346 66 52 68 242 238 286 285 314 69 354 17 10 53 28 12 45 92 114 336 4 337 52 113 56 115 143 186 184 266
352 345 345 350 351 352 348 349 348 347 348 339 314 21 50 327 338 63 73 51 168 211 290 327 359 73 4 1 82 73 46 60 21 17 101 130 359 324 15 347 34 194 54 153 103 69 35
341 343 349 352 354 352 350 350 351 349 348 2 63 53 331 324 14 54 73 128 100 201 325 338 67 26 40 339 58 57 26 289 343 78 184 168 75 6 319 335 33 50 137 71 4 124 283
331 337 342 349 351 348 353 352 351 353 352 350 48 56 254 359 75 52 84 181 228 221 157 74 75 22 73 39 61 45 349 315 54 348 78 127 108 285 343 25 150 24 31 48 116 82 171
323 334 339 344 349 348 352 354 352 354 352 45 63 42 336 96 54 60 67 73 340 346 344 36 90 99 49 13 28 98 157 219 280 242 106 206 133 120 112 276 150 129 148 142 118 238 60
318 332 334 339 343 348 350 353 354 358 20 6 61 284 335 72 88 48 178 97 97 76 39 41 40 10 146 79 48 34 331 343 355 6 181 200 352 51 355 12 352 186 175 115 103 84 202
304 322 326 334 339 350 353 350 352 356 4 88 64 18 342 44 25 103 127 98 128 174 125 109 121 39 359 110 94 102 17 2 8 43 41 45 51 192 190 207 132 188 195 183 153 156 178
291 301 318 329 341 349 358 351 350 352 360 93 25 137 198 344 5 42 25 1 14 77 65 3 44 136 150 93 26 126 151 318 59 6 43 85 328 44 304 286 287 269 226 188 209 186 182
279 287 300 321 336 347 356 358 353 352 7 74 92 75 12 132 238 95 13 14 6 333 345 350 51 7 173 190 221 228 161 219 194 151 138 176 175 120 292 18 223 272 253 224 235 257 264
263 279 291 304 327 339 355 3 2 359 12 89 243 127 109 1 356 35 285 177 219 277 144 130 169 37 322 261 204 244 225 141 175 169 189 160 136 115 248 218 279 272 227 210 198 207 213
247 260 272 289 306 316 342 358 11 22 51 100 163 110 82 240 134 189 208 178 162 333 321 339 125 165 215 291 296 136 199 203 186 226 132 134 117 56 280 354 198 252 191 187 204 224 213
243 248 254 257 274 290 286 359 9 30 44 92 141 97 111 268 227 298 207 240 2 336 186 204 292 328 347 13 4 349 334 335 100 39 249 110 123 243 248 232 305 296 57 156 174 294 232
320 264 247 248 252 254 249 253 47 44 65 91 96 124 99 114 251 204 137 164 199 227 334 255 28 80 76 94 23 235 229 229 271 130 39 87 71 158 105 245 251 262 297 150 162 280 20
339 307 291 254 234 236 224 212 199 176 105 101 105 113 91 95 252 144 200 193 127 101 210 322 335 344 43 104 174 205 257 284 240 197 166 129 171 214 228 263 279 252 223 256 72 273 228
334 318 292 266 244 227 217 203 198 189 175 122 169 161 120 148 277 191 208 145 87 102 148 237 45 38 20 182 172 210 197 228 304 196 197 174 161 194 189 218 273 150 89 177 227 279 264
338 324 294 261 245 228 212 202 199 195 189 141 134 179 133 132 232 211 214 207 192 187 143 215 226 180 191 111 262 79 228 191 175 246 9 269 200 190 193 217 255 204 241 254 199 239 229